Погода в Погостище

Россия / Псковская область     57°33′46″N   29°52′02″E
темп.,
°C
ветер,
м/с
пор.,
м/с
влажн.,
%
обл.,
%
осадки,
мм/ч
давл.,
гПа
погр.,
м
7 мая, пт
пт700:00+4юз71288100 0.1 1001932
03:00+4юз61387100 0.1 10021040
06:00+3ююз6139047 0.0 1002818
09:00+5юз71175100 0.0 10031040
12:00+8зюз6106678 0.1 10041518
15:00+10зюз6953100 0.1 10052039
18:00+10з3562100 0.1 10041138
21:00+7всв1172100 0.1 100410
8 мая, сб
сб800:00+6юв1194100 1.3 100329
03:00+5с3497100 6.8 1001313
06:00+4ссз4597100 2.9 1001683
09:00+4сз3798100 3.4 1002810
12:00+3зсз61197100 1.3 1003573
15:00+4зсз51094100 1.8 1005769
18:00+6сз588096 0.4 10061065
21:00+3зсз511855 0.5 1008409
9 мая, вс
вс900:00+2зсз514855 0.0 1010510
03:00+1зсз614825 0.0 1013466
06:00+1з513851 0.0 1015379
09:00+6з610623 0.0 1017841
12:00+10зюз6847100 0.0 10191535
15:00+11зюз5849100 0.0 10191781
18:00+11юз4857100 0.0 10201337
21:00+7юз377099 0.0 1021139
10 мая, пн
пн1000:00+6ююз41174100 0.0 1021277
03:00+7ю51677100 0.1 1021687
06:00+8ююз6137294 0.1 1022497
09:00+10ююз61374100 0.1 1023486
12:00+15ююз610605 0.0 1024791
15:00+19ююз6957100 0.0 10231331
18:00+18ююз6106237 0.0 10231158
21:00+13ю51376100 0.0 1024375
11 мая, вт
вт1100:00+11ю51582100 0.0 1025440
03:00+8ю413895 0.0 1025306
06:00+9ю5148451 0.0 1025386
09:00+14ю6147053 0.0 1025682
12:00+18ю7105595 0.0 10251120
15:00+20ю69536 0.0 10241354
18:00+19ю59610 0.0 1023914
21:00+13ю412770 0.0 1024275